LHA4MK KSEA-KMFR

Flight info

Callsign LHA4MK
Flight time 0h 49m
Altitude 23000
Route HAROB6 FEPOT SAMIE
Aircraft A320/M-SDE1E2FGIJ1RWYZE3/LB1

Departure

Time 2026-04-17 07:58
Airport Seattle–Tacoma International Airport (KSEA)

Arrival

Time 2026-04-17 08:48
Airport Rogue Valley International-Medford Airport (KMFR)
Time Latitude Longitude Altitude Speed Heading
2026-04-17 07:25 47.44582 -122.30123 394 ft 0 kts 135°
2026-04-17 07:48 47.44588 -122.30130 394 ft 4 kts 125°
2026-04-17 07:48 47.44595 -122.30163 394 ft 3 kts 115°
2026-04-17 07:48 47.44602 -122.30195 394 ft 4 kts 75°
2026-04-17 07:49 47.44588 -122.30222 394 ft 4 kts 29°
2026-04-17 07:49 47.44576 -122.30231 394 ft 1 kts 27°
2026-04-17 07:49 47.44575 -122.30232 394 ft 0 kts 27°
2026-04-17 07:53 47.44576 -122.30231 394 ft 1 kts 27°
2026-04-17 07:53 47.44590 -122.30220 394 ft 4 kts 27°
2026-04-17 07:54 47.44620 -122.30201 394 ft 4 kts 19°
2026-04-17 07:54 47.44654 -122.30192 394 ft 6 kts
2026-04-17 07:54 47.44688 -122.30240 394 ft 13 kts 301°
2026-04-17 07:54 47.44746 -122.30376 394 ft 17 kts 303°
2026-04-17 07:55 47.44802 -122.30521 394 ft 14 kts 284°
2026-04-17 07:55 47.44852 -122.30629 394 ft 15 kts 353°
2026-04-17 07:55 47.44963 -122.30627 394 ft 18 kts
2026-04-17 07:55 47.45111 -122.30626 394 ft 23 kts
2026-04-17 07:56 47.45282 -122.30627 394 ft 26 kts
2026-04-17 07:56 47.45468 -122.30623 394 ft 28 kts
2026-04-17 07:56 47.45669 -122.30621 394 ft 30 kts
2026-04-17 07:56 47.45882 -122.30622 392 ft 27 kts
2026-04-17 07:57 47.46075 -122.30620 391 ft 29 kts
2026-04-17 07:57 47.46262 -122.30642 394 ft 22 kts 334°
2026-04-17 07:57 47.46268 -122.30769 394 ft 13 kts 223°
2026-04-17 07:57 47.46173 -122.30781 392 ft 20 kts 181°
2026-04-17 07:58 47.45793 -122.30784 391 ft 87 kts 180°
2026-04-17 07:58 47.45007 -122.30788 392 ft 136 kts 180°
2026-04-17 07:58 47.43982 -122.30796 754 ft 149 kts 180°
2026-04-17 07:58 47.42944 -122.30789 1406 ft 150 kts 181°
2026-04-17 07:59 47.41874 -122.30818 1889 ft 161 kts 182°
2026-04-17 07:59 47.40675 -122.30851 2161 ft 183 kts 183°
2026-04-17 07:59 47.39314 -122.30887 2426 ft 208 kts 182°
2026-04-17 07:59 47.37778 -122.30936 2816 ft 233 kts 182°
2026-04-17 08:00 47.36102 -122.30998 3479 ft 246 kts 182°
2026-04-17 08:00 47.34373 -122.31070 4360 ft 251 kts 184°
2026-04-17 08:00 47.32707 -122.31799 5203 ft 255 kts 216°
2026-04-17 08:00 47.31619 -122.33848 6034 ft 260 kts 249°
2026-04-17 08:01 47.31150 -122.36432 6885 ft 264 kts 260°
2026-04-17 08:01 47.30879 -122.39125 7715 ft 267 kts 264°
2026-04-17 08:01 47.30665 -122.41859 8580 ft 269 kts 265°
2026-04-17 08:01 47.30574 -122.44617 9445 ft 270 kts 276°
2026-04-17 08:02 47.30738 -122.47380 10290 ft 273 kts 276°
2026-04-17 08:02 47.30867 -122.50286 10567 ft 296 kts 276°
2026-04-17 08:02 47.30980 -122.53430 10739 ft 318 kts 275°
2026-04-17 08:02 47.31079 -122.56750 11205 ft 329 kts 275°
2026-04-17 08:03 47.31169 -122.60094 11841 ft 333 kts 275°
2026-04-17 08:03 47.31255 -122.63518 12504 ft 336 kts 275°
2026-04-17 08:03 47.31336 -122.66979 13166 ft 340 kts 275°
2026-04-17 08:03 47.31419 -122.70472 13847 ft 343 kts 276°
2026-04-17 08:04 47.31500 -122.73997 14474 ft 347 kts 274°
2026-04-17 08:04 47.31257 -122.77572 15041 ft 356 kts 263°
2026-04-17 08:04 47.30499 -122.81087 15602 ft 365 kts 253°
2026-04-17 08:04 47.29557 -122.84572 16110 ft 368 kts 253°
2026-04-17 08:05 47.28610 -122.88097 16648 ft 372 kts 253°
2026-04-17 08:05 47.27657 -122.91655 17191 ft 375 kts 253°
2026-04-17 08:05 47.26698 -122.95236 17748 ft 378 kts 253°
2026-04-17 08:05 47.25728 -122.98853 18304 ft 382 kts 253°
2026-04-17 08:06 47.24495 -123.02373 18810 ft 392 kts 242°
2026-04-17 08:06 47.22769 -123.05539 19297 ft 403 kts 230°
2026-04-17 08:06 47.20600 -123.08216 19808 ft 411 kts 221°
2026-04-17 08:06 47.18297 -123.10731 20327 ft 414 kts 221°
2026-04-17 08:07 47.15981 -123.13254 20819 ft 416 kts 221°
2026-04-17 08:07 47.13646 -123.15801 21347 ft 418 kts 221°
2026-04-17 08:07 47.11258 -123.18267 21832 ft 424 kts 216°
2026-04-17 08:07 47.08584 -123.20172 22284 ft 433 kts 204°
2026-04-17 08:08 47.05685 -123.21316 22723 ft 442 kts 193°
2026-04-17 08:08 47.02602 -123.21641 23152 ft 450 kts 181°
2026-04-17 08:08 46.99463 -123.21480 23590 ft 453 kts 181°
2026-04-17 08:08 46.96297 -123.21311 23991 ft 456 kts 181°
2026-04-17 08:09 46.93115 -123.21144 24354 ft 459 kts 181°
2026-04-17 08:09 46.89910 -123.20982 24715 ft 462 kts 181°
2026-04-17 08:09 46.86689 -123.20824 25059 ft 465 kts 181°
2026-04-17 08:09 46.83450 -123.20668 25399 ft 467 kts 181°
2026-04-17 08:10 46.80199 -123.20512 25767 ft 468 kts 181°
2026-04-17 08:10 46.76935 -123.20355 26113 ft 471 kts 181°
2026-04-17 08:10 46.73650 -123.20199 26446 ft 474 kts 181°
2026-04-17 08:10 46.70350 -123.20042 26778 ft 476 kts 181°
2026-04-17 08:11 46.67025 -123.19882 27120 ft 479 kts 182°
2026-04-17 08:11 46.63681 -123.19721 27460 ft 482 kts 182°
2026-04-17 08:11 46.60325 -123.19559 27798 ft 485 kts 182°
2026-04-17 08:11 46.56942 -123.19395 28134 ft 487 kts 182°
2026-04-17 08:12 46.53545 -123.19229 28467 ft 490 kts 182°
2026-04-17 08:12 46.50127 -123.19061 28791 ft 493 kts 182°
2026-04-17 08:12 46.46702 -123.18891 29179 ft 493 kts 182°
2026-04-17 08:12 46.43276 -123.18723 29653 ft 492 kts 182°
2026-04-17 08:13 46.39860 -123.18556 30134 ft 491 kts 182°
2026-04-17 08:13 46.36445 -123.18390 30572 ft 491 kts 182°
2026-04-17 08:13 46.33036 -123.18224 30957 ft 491 kts 182°
2026-04-17 08:14 46.26202 -123.17905 31677 ft 492 kts 182°
2026-04-17 08:14 46.22777 -123.17746 32022 ft 493 kts 182°
2026-04-17 08:14 46.19346 -123.17586 32385 ft 494 kts 182°
2026-04-17 08:14 46.15914 -123.17422 32753 ft 494 kts 182°
2026-04-17 08:15 46.12477 -123.17257 33124 ft 494 kts 183°
2026-04-17 08:15 46.09036 -123.17090 33370 ft 496 kts 183°
2026-04-17 08:15 46.05565 -123.16923 33420 ft 502 kts 183°
2026-04-17 08:16 45.98548 -123.16586 33405 ft 505 kts 183°
2026-04-17 08:16 45.91520 -123.16253 33397 ft 506 kts 182°
2026-04-17 08:17 45.84531 -123.15916 33397 ft 506 kts 183°
2026-04-17 08:17 45.77493 -123.15587 33392 ft 506 kts 182°
2026-04-17 08:18 45.70461 -123.15249 33354 ft 506 kts 182°
2026-04-17 08:18 45.63420 -123.14912 33368 ft 507 kts 183°
2026-04-17 08:19 45.56366 -123.14585 33395 ft 507 kts 183°
2026-04-17 08:19 45.49310 -123.14252 33400 ft 508 kts 183°
2026-04-17 08:20 45.42250 -123.13928 33402 ft 508 kts 183°
2026-04-17 08:20 45.35187 -123.13603 33408 ft 508 kts 183°
2026-04-17 08:21 45.28121 -123.13274 33380 ft 508 kts 183°
2026-04-17 08:21 45.21045 -123.12950 33400 ft 509 kts 183°
2026-04-17 08:22 45.13964 -123.12625 33405 ft 509 kts 183°
2026-04-17 08:22 45.06880 -123.12298 33410 ft 509 kts 183°
2026-04-17 08:23 44.99799 -123.11965 33413 ft 509 kts 183°
2026-04-17 08:23 44.92759 -123.11640 33383 ft 509 kts 183°
2026-04-17 08:24 44.85668 -123.11314 33401 ft 510 kts 183°
2026-04-17 08:24 44.78575 -123.10990 33407 ft 510 kts 183°
2026-04-17 08:25 44.71481 -123.10674 33409 ft 510 kts 183°
2026-04-17 08:25 44.64383 -123.10368 33423 ft 510 kts 183°
2026-04-17 08:26 44.57284 -123.10046 33396 ft 510 kts 183°
2026-04-17 08:26 44.50187 -123.09717 33412 ft 510 kts 183°
2026-04-17 08:27 44.43088 -123.09394 33425 ft 511 kts 183°
2026-04-17 08:27 44.35989 -123.09070 33422 ft 511 kts 183°
2026-04-17 08:28 44.28883 -123.08748 33416 ft 511 kts 183°
2026-04-17 08:28 44.21783 -123.08436 33394 ft 510 kts 183°
2026-04-17 08:29 44.14685 -123.08126 33407 ft 510 kts 183°
2026-04-17 08:29 44.07638 -123.07814 33412 ft 510 kts 183°
2026-04-17 08:30 44.00544 -123.07497 33418 ft 510 kts 183°
2026-04-17 08:30 43.93450 -123.07183 33426 ft 509 kts 183°
2026-04-17 08:31 43.86398 -123.06866 32942 ft 507 kts 183°
2026-04-17 08:31 43.82833 -123.06712 31653 ft 519 kts 182°
2026-04-17 08:31 43.79195 -123.06561 30629 ft 525 kts 182°
2026-04-17 08:31 43.75540 -123.06406 29613 ft 527 kts 182°
2026-04-17 08:32 43.71898 -123.06245 28641 ft 520 kts 182°
2026-04-17 08:32 43.69509 -123.06138 27911 ft 517 kts 182°
2026-04-17 08:32 43.65937 -123.05975 26948 ft 510 kts 182°
2026-04-17 08:32 43.62413 -123.05815 26041 ft 502 kts 182°
2026-04-17 08:33 43.58948 -123.05658 25125 ft 494 kts 181°
2026-04-17 08:33 43.55536 -123.05503 24238 ft 486 kts 181°
2026-04-17 08:33 43.52190 -123.05352 23054 ft 477 kts 181°
2026-04-17 08:33 43.48921 -123.05204 22306 ft 461 kts 181°
2026-04-17 08:34 43.45768 -123.05063 21723 ft 449 kts 181°
2026-04-17 08:34 43.42661 -123.04930 21131 ft 445 kts 181°
2026-04-17 08:34 43.39581 -123.04803 20569 ft 441 kts 181°
2026-04-17 08:34 43.36525 -123.04676 20016 ft 438 kts 181°
2026-04-17 08:35 43.33493 -123.04551 19462 ft 435 kts 181°
2026-04-17 08:35 43.30481 -123.04426 18911 ft 432 kts 181°
2026-04-17 08:35 43.27477 -123.04300 18292 ft 431 kts 180°
2026-04-17 08:35 43.24496 -123.04171 17695 ft 427 kts 180°
2026-04-17 08:36 43.21542 -123.04042 17100 ft 423 kts 180°
2026-04-17 08:36 43.18652 -123.03915 16521 ft 419 kts 180°
2026-04-17 08:36 43.15740 -123.03790 15649 ft 422 kts 180°
2026-04-17 08:36 43.12795 -123.03667 14976 ft 419 kts 180°
2026-04-17 08:37 43.09918 -123.03541 14317 ft 409 kts 179°
2026-04-17 08:37 43.07111 -123.03417 13663 ft 398 kts 179°
2026-04-17 08:37 43.04357 -123.03301 13062 ft 394 kts 179°
2026-04-17 08:37 43.01630 -123.03188 12466 ft 390 kts 179°
2026-04-17 08:38 42.98956 -123.03072 11876 ft 379 kts 179°
2026-04-17 08:38 42.96361 -123.02956 11301 ft 368 kts 179°
2026-04-17 08:38 42.93837 -123.02849 10761 ft 357 kts 179°
2026-04-17 08:38 42.91423 -123.02748 10609 ft 337 kts 178°
2026-04-17 08:39 42.89147 -123.02650 10477 ft 318 kts 178°
2026-04-17 08:39 42.86986 -123.02559 10289 ft 305 kts 179°
2026-04-17 08:39 42.84891 -123.02473 9919 ft 298 kts 178°
2026-04-17 08:39 42.82835 -123.02388 9784 ft 294 kts 178°
2026-04-17 08:40 42.80797 -123.02301 9649 ft 289 kts 178°
2026-04-17 08:40 42.78838 -123.02216 9512 ft 275 kts 178°
2026-04-17 08:40 42.76957 -123.02136 9256 ft 268 kts 178°
2026-04-17 08:40 42.75110 -123.02058 8930 ft 263 kts 178°
2026-04-17 08:41 42.73293 -123.01982 8598 ft 259 kts 178°
2026-04-17 08:41 42.71507 -123.01904 8277 ft 255 kts 177°
2026-04-17 08:41 42.69751 -123.01831 7953 ft 250 kts 177°
2026-04-17 08:41 42.68051 -123.01758 7647 ft 246 kts 177°
2026-04-17 08:42 42.66359 -123.01685 7339 ft 241 kts 177°
2026-04-17 08:42 42.64709 -123.01524 7035 ft 235 kts 168°
2026-04-17 08:42 42.63159 -123.00876 6668 ft 232 kts 158°
2026-04-17 08:42 42.61672 -123.00072 6328 ft 228 kts 158°
2026-04-17 08:43 42.60205 -122.99284 6007 ft 225 kts 158°
2026-04-17 08:43 42.58761 -122.98519 5700 ft 220 kts 158°
2026-04-17 08:43 42.57345 -122.97772 5401 ft 217 kts 158°
2026-04-17 08:43 42.55935 -122.97028 5111 ft 218 kts 158°
2026-04-17 08:44 42.54520 -122.96281 4798 ft 218 kts 158°
2026-04-17 08:44 42.53110 -122.95538 4492 ft 215 kts 158°
2026-04-17 08:44 42.51747 -122.94820 4203 ft 206 kts 158°
2026-04-17 08:44 42.50430 -122.94127 3926 ft 201 kts 158°
2026-04-17 08:45 42.49156 -122.93456 3674 ft 190 kts 158°
2026-04-17 08:45 42.47965 -122.92829 3401 ft 178 kts 158°
2026-04-17 08:45 42.46853 -122.92245 3183 ft 161 kts 158°
2026-04-17 08:45 42.45848 -122.91716 2954 ft 151 kts 158°
2026-04-17 08:46 42.44889 -122.91211 2750 ft 146 kts 158°
2026-04-17 08:46 42.43946 -122.90716 2541 ft 144 kts 158°
2026-04-17 08:46 42.43016 -122.90227 2315 ft 143 kts 158°
2026-04-17 08:46 42.42093 -122.89742 2096 ft 142 kts 159°
2026-04-17 08:47 42.41172 -122.89259 1886 ft 142 kts 159°
2026-04-17 08:47 42.40249 -122.88774 1693 ft 143 kts 159°
2026-04-17 08:47 42.39325 -122.88289 1511 ft 142 kts 159°
2026-04-17 08:47 42.38402 -122.87798 1335 ft 143 kts 159°
2026-04-17 08:48 42.37586 -122.87376 1319 ft 102 kts 159°
2026-04-17 08:48 42.37081 -122.87114 1329 ft 58 kts 159°
2026-04-17 08:48 42.36814 -122.86974 1331 ft 24 kts 156°
2026-04-17 08:48 42.36718 -122.86982 1331 ft 13 kts 249°
2026-04-17 08:49 42.36727 -122.87090 1325 ft 11 kts 355°
2026-04-17 08:49 42.36803 -122.87132 1325 ft 13 kts 335°
2026-04-17 08:49 42.36876 -122.87176 1326 ft 12 kts 335°
2026-04-17 08:49 42.36928 -122.87241 1325 ft 9 kts 272°
2026-04-17 08:50 42.36910 -122.87311 1325 ft 6 kts 248°
2026-04-17 08:50 42.36903 -122.87334 1325 ft 3 kts 247°
2026-04-17 08:50 42.36902 -122.87336 1325 ft 0 kts 248°